Jackson Hawkins Field, MS

3:51 AM CDT on April 23, 2017 (GMT -0500)
Hawkins

Weather History for KHKS - December, 2012

Change the Weather History Date:

Wednesday, December 12, 2012

  Actual Average (KJAN) Record (KJAN)
Temperature  
Mean Temperature 45 °F -  
Max Temperature 54 °F 58 °F 81 °F (1971)
Min Temperature 36 °F 38 °F 12 °F (1962)
Degree Days  
Heating Degree Days 20    
Moisture  
Dew Point 25 °F    
Average Humidity 53    
Maximum Humidity 82    
Minimum Humidity 25    
Precipitation  
Precipitation 0.00 in - - ()
Sea Level Pressure  
Sea Level Pressure 30.27 in    
Wind  
Wind Speed 4 mph (North)    
Max Wind Speed 9 mph    
Max Gust Speed -    
Visibility 10 miles    
Events      
Averages and records for this station are not official NWS values.
T = Trace of Precipitation, MM = Missing Value Source: NWS Daily Summary

Daily Weather History Graph

Daily Weather History Graph

Search for Another Location

Airport or City:

Trip Planner

Search our weather history database for the weather conditions in past years. The results will help you decide how hot, cold, wet, or windy it might be!

Date:

Astronomy

Dec. 12, 2012 Rise Set
Actual Time 6:53 AM CST 4:56 PM CST
Civil Twilight 6:26 AM CST 5:23 PM CST
Nautical Twilight 5:55 AM CST 5:54 PM CST
Astronomical Twilight 5:25 AM CST 6:24 PM CST
Moon 5:58 AM CST (12/12) 4:32 PM CST (12/12)
Length of Visible Light 10h 57m
Length of Day
10h 03m
Waning Crescent, 1% of the Moon is Illuminated
Dec 12
Waning Crescent
Dec 13
New
Dec 19
First Quarter
Dec 28
Full
Jan 4
Last Quarter

Hourly Weather History & Observations

Time (CST) Temp. Windchill Dew Point Humidity Pressure Visibility Wind Dir Wind Speed Gust Speed Precip Events Conditions
12:53 AM 37.0 °F - 30.0 °F 76% 30.21 in 10.0 mi Calm Calm - N/A   Clear
1:53 AM 36.0 °F 33.3 °F 30.9 °F 82% 30.22 in 10.0 mi NW 3.5 mph - N/A   Clear
2:53 AM 37.9 °F 34.4 °F 28.9 °F 70% 30.22 in 10.0 mi NNE 4.6 mph - N/A   Partly Cloudy
3:53 AM 37.9 °F 33.5 °F 28.0 °F 68% 30.22 in 10.0 mi North 5.8 mph - N/A   Scattered Clouds
4:53 AM 37.9 °F 34.4 °F 26.1 °F 62% 30.22 in 10.0 mi NNE 4.6 mph - N/A   Clear
5:53 AM 37.9 °F 35.5 °F 27.0 °F 65% 30.24 in 10.0 mi NNE 3.5 mph - N/A   Clear
6:53 AM 37.9 °F 34.4 °F 28.0 °F 68% 30.25 in 10.0 mi North 4.6 mph - N/A   Scattered Clouds
7:53 AM 39.0 °F 35.7 °F 27.0 °F 62% 30.29 in 10.0 mi NNW 4.6 mph - N/A   Mostly Cloudy
8:53 AM 43.0 °F 38.2 °F 27.0 °F 53% 30.30 in 10.0 mi NNE 8.1 mph - N/A   Clear
9:53 AM 42.1 °F 37.1 °F 25.0 °F 51% 30.31 in 10.0 mi North 8.1 mph - N/A   Overcast
10:53 AM 46.0 °F 41.4 °F 23.0 °F 40% 30.31 in 10.0 mi North 9.2 mph - N/A   Clear
11:53 AM 48.9 °F - 19.0 °F 31% 30.29 in 10.0 mi NNE 9.2 mph - N/A   Clear
12:53 PM 51.1 °F - 17.1 °F 26% 30.27 in 10.0 mi NNE 9.2 mph - N/A   Clear
1:53 PM 53.1 °F - 18.0 °F 25% 30.26 in 10.0 mi NE 9.2 mph - N/A   Clear
2:53 PM 54.0 °F - 19.9 °F 26% 30.26 in 10.0 mi North 5.8 mph - N/A   Clear
3:53 PM 53.1 °F - 19.9 °F 27% 30.25 in 10.0 mi NNE 5.8 mph - N/A   Clear
4:53 PM 50.0 °F - 21.0 °F 32% 30.25 in 10.0 mi Calm Calm - N/A   Clear
5:53 PM 46.9 °F - 24.1 °F 41% 30.25 in 10.0 mi Calm Calm - N/A   Clear
6:53 PM 44.1 °F 42.5 °F 26.1 °F 49% 30.28 in 10.0 mi NNW 3.5 mph - N/A   Clear
7:53 PM 41.0 °F 39.0 °F 27.0 °F 57% 30.29 in 10.0 mi NW 3.5 mph - N/A   Clear
8:53 PM 39.9 °F 37.8 °F 27.0 °F 60% 30.30 in 10.0 mi North 3.5 mph - N/A   Clear
9:53 PM 41.0 °F - 27.0 °F 57% 30.30 in 10.0 mi Calm Calm - N/A   Clear
10:53 PM 37.0 °F - 27.0 °F 67% 30.30 in 10.0 mi Calm Calm - N/A   Clear
11:53 PM 36.0 °F 33.3 °F 27.0 °F 70% 30.31 in 10.0 mi NW 3.5 mph - N/A   Clear